User: anonymous   Login
Location: State Camp
(41.2367°N, 77.7828°W)
Time: 15:34:42
(UTC-05:00)
Language:

Lacrosse 5 - Orbit

View from above orbital plane
View from above orbital plane
View from above satellite
View from above satellite

Ground track
Ground track

The orbit data is extracted from the following two-line orbital elements,

1 28646U 05016A   17326.77588982 0.00000000  00000-0  00000-0 0    04
2 28646  57.0100 254.6093 0005000  86.7708 273.2292 14.51911432    09
Epoch (UTC): 22 November 2017 18:37:16
Eccentricity: 0.0005000
inclination: 57.0100°
perigee height: 716 km
apogee height: 723 km
right ascension of ascending node: 254.6093°
argument of perigee: 86.7708°
revolutions per day: 14.51911432
mean anomaly at epoch: 273.2292°
orbit number at epoch: 0

The dashed part of the orbit path shows where the satellite is in the earth's shadow,  

DLR